Highgate, VT

3:07 PM EST on December 06, 2019 (GMT -0500)
Franklin County State

Weather History for KFSO - June, 2019

Change the Weather History Date:

Monday, June 10, 2019

  Actual Average (WUND) Record (WUND)
Temperature  
Mean Temperature 72 °F -  
Max Temperature 85 °F - - (-1)
Min Temperature 58 °F - - (-1)
Cooling Degree Days 6    
Growing Degree Days 22 (Base 50)    
Moisture  
Dew Point 54 °F    
Average Humidity 52    
Maximum Humidity 82    
Minimum Humidity 32    
Precipitation  
Precipitation 0.00 in - - ()
Sea Level Pressure  
Sea Level Pressure 30.04 in    
Wind  
Wind Speed 4 mph (South)    
Max Wind Speed 10 mph    
Max Gust Speed 16 mph    
Visibility 10 miles    
Events Rain    
Averages and records for this station are not official NWS values.
T = Trace of Precipitation, MM = Missing Value Source: NWS Daily Summary

Daily Weather History Graph

Daily Weather History Graph

Search for Another Location

Airport or City:

Astronomy

Jun. 10, 2019 Rise Set
Actual Time 5:05 AM EDT 8:38 PM EDT
Civil Twilight 4:28 AM EDT 9:15 PM EDT
Nautical Twilight 3:39 AM EDT 10:04 PM EDT
Astronomical Twilight 2:36 AM EDT 11:08 PM EDT
Moon 1:04 PM EDT (6/10) 1:38 AM EDT (6/10)
Length of Visible Light 16h 46m
Length of Day
15h 32m
First Quarter, 55% of the Moon is Illuminated
Jun 10
First Quarter
Jun 17
Full
Jun 25
Last Quarter
Jul 2
New
Jul 9
First Quarter

Hourly Weather History & Observations

Time (EDT) Temp. Heat Index Dew Point Humidity Pressure Visibility Wind Dir Wind Speed Gust Speed Precip Events Conditions
12:15 AM 65.3 °F - 50.0 °F 58% 30.18 in 10.0 mi SSE 4.6 mph - N/A   Clear
12:36 AM 66.7 °F - 49.1 °F 53% 30.18 in 10.0 mi SSE 4.6 mph - N/A   Clear
12:56 AM 67.3 °F - 48.9 °F 52% 30.17 in 10.0 mi South 5.8 mph - N/A   Clear
1:15 AM 69.1 °F - 48.9 °F 49% 30.17 in 10.0 mi SSE 4.6 mph - N/A   Clear
1:36 AM 68.2 °F - 49.1 °F 50% 30.17 in 10.0 mi South 3.5 mph - N/A   Clear
1:55 AM 61.7 °F - 51.8 °F 70% 30.17 in 10.0 mi Calm Calm - N/A   Clear
2:15 AM 60.3 °F - 52.0 °F 74% 30.17 in 10.0 mi Calm Calm - N/A   Clear
2:36 AM 59.2 °F - 52.3 °F 78% 30.17 in 10.0 mi Calm Calm - N/A   Clear
2:55 AM 58.5 °F - 51.8 °F 79% 30.17 in 10.0 mi Calm Calm - N/A   Clear
3:15 AM 58.3 °F - 52.7 °F 82% 30.17 in 10.0 mi Calm Calm - N/A   Clear
3:35 AM 60.1 °F - 52.9 °F 77% 30.17 in 10.0 mi South 3.5 mph - N/A   Clear
3:56 AM 62.4 °F - 53.1 °F 71% 30.17 in 10.0 mi Calm Calm - N/A   Clear
4:15 AM 65.1 °F - 53.6 °F 66% 30.16 in 10.0 mi South 3.5 mph - N/A   Clear
4:35 AM 62.1 °F - 53.6 °F 74% 30.16 in 10.0 mi Calm Calm - N/A   Clear
4:55 AM 60.4 °F - 53.6 °F 78% 30.16 in 10.0 mi South 3.5 mph - N/A   Clear
5:15 AM 61.3 °F - 53.6 °F 76% 30.16 in 10.0 mi South 3.5 mph - N/A   Clear
5:35 AM 62.2 °F - 53.1 °F 72% 30.16 in 10.0 mi South 3.5 mph - N/A   Clear
5:56 AM 60.6 °F - 54.0 °F 79% 30.15 in 10.0 mi Calm Calm - N/A   Clear
6:15 AM 62.2 °F - 55.9 °F 80% 30.15 in 10.0 mi SE 3.5 mph - N/A   Clear
6:35 AM 65.5 °F - 55.0 °F 69% 30.15 in 10.0 mi South 3.5 mph - N/A   Clear
6:56 AM 67.1 °F - 54.1 °F 63% 30.15 in 7.0 mi South 3.5 mph - N/A   Clear
7:15 AM 68.2 °F - 55.4 °F 64% 30.15 in 10.0 mi South 3.5 mph - N/A   Clear
7:36 AM 68.2 °F - 54.5 °F 62% 30.15 in 10.0 mi Calm Calm - N/A   Clear
7:55 AM 70.2 °F - 55.4 °F 59% 30.15 in 10.0 mi Calm Calm - N/A   Clear
8:15 AM 71.4 °F - 53.4 °F 53% 30.14 in 10.0 mi South 3.5 mph - N/A   Clear
8:36 AM 72.7 °F - 53.6 °F 51% 30.13 in 10.0 mi SSE 6.9 mph - N/A   Clear
8:56 AM 74.7 °F - 53.6 °F 48% 30.13 in 10.0 mi SSW 5.8 mph - N/A   Clear
9:15 AM 75.9 °F - 51.1 °F 42% 30.12 in 10.0 mi South 10.4 mph - N/A   Clear
9:55 AM 76.5 °F - 50.4 °F 40% 30.12 in 10.0 mi South 5.8 mph - N/A   Clear
10:35 AM 78.6 °F - 51.3 °F 38% 30.10 in 10.0 mi South 5.8 mph - N/A   Clear
10:56 AM 80.1 °F - 51.6 °F 37% 30.09 in 10.0 mi SSW 4.6 mph - N/A   Clear
11:15 AM 78.1 °F - 52.0 °F 40% 30.09 in 10.0 mi SSW 4.6 mph - N/A   Clear
11:35 AM 81.7 °F 80.9 °F 53.1 °F 37% 30.08 in 10.0 mi SW 6.9 mph - N/A   Clear
11:56 AM 81.9 °F 81.0 °F 53.2 °F 37% 30.07 in 10.0 mi South 5.8 mph - N/A   Clear
12:15 PM 80.8 °F 80.4 °F 53.6 °F 39% 30.06 in 10.0 mi SSW 4.6 mph - N/A   Clear
12:36 PM 82.8 °F 81.7 °F 54.3 °F 37% 30.05 in 10.0 mi South 5.8 mph - N/A   Clear
12:55 PM 85.3 °F 83.8 °F 54.9 °F 35% 30.05 in 10.0 mi SSW 6.9 mph - N/A   Clear
1:15 PM 83.5 °F - 51.3 °F 33% 30.04 in 10.0 mi SSW 6.9 mph 16.1 mph N/A   Clear
1:36 PM 82.2 °F - 52.0 °F 35% 30.03 in 10.0 mi SSW 8.1 mph - N/A   Clear
1:56 PM 83.8 °F - 52.7 °F 34% 30.03 in 10.0 mi SW 9.2 mph - N/A   Clear
2:15 PM 84.2 °F - 52.3 °F 33% 30.01 in 10.0 mi SSW 6.9 mph - N/A   Clear
2:35 PM 85.8 °F 83.9 °F 53.1 °F 32% 30.00 in 10.0 mi SSW 6.9 mph - N/A   Clear
2:56 PM 84.6 °F - 52.5 °F 33% 29.99 in 10.0 mi West 6.9 mph - N/A   Clear
3:15 PM 84.7 °F - 52.0 °F 32% 29.99 in 10.0 mi SW 4.6 mph - N/A   Clear
3:35 PM 84.9 °F 83.3 °F 53.2 °F 34% 29.98 in 10.0 mi SW 6.9 mph - N/A   Clear
3:56 PM 85.1 °F 83.5 °F 53.4 °F 34% 29.97 in 10.0 mi SSW 9.2 mph - N/A   Clear
4:15 PM 82.6 °F - 52.2 °F 35% 29.97 in 10.0 mi SW 8.1 mph - N/A   Clear
4:35 PM 81.5 °F - 52.3 °F 36% 29.96 in 10.0 mi SSW 4.6 mph - N/A   Clear
4:56 PM 81.3 °F - 52.2 °F 36% 29.95 in 10.0 mi SSW 6.9 mph - N/A   Clear
5:15 PM 82.6 °F 81.5 °F 53.4 °F 36% 29.94 in 10.0 mi SSW 4.6 mph - N/A   Clear
5:35 PM 82.8 °F 81.9 °F 55.0 °F 38% 29.93 in 10.0 mi SSW 4.6 mph - N/A   Clear
5:55 PM 82.4 °F 81.9 °F 56.3 °F 41% 29.92 in 10.0 mi Calm Calm - N/A   Clear
6:15 PM 82.2 °F 81.8 °F 56.1 °F 41% 29.92 in 10.0 mi South 4.6 mph - N/A   Clear
6:35 PM 80.6 °F 80.6 °F 56.3 °F 43% 29.91 in 10.0 mi SSW 4.6 mph - N/A   Clear
6:55 PM 79.7 °F - 56.5 °F 45% 29.90 in 10.0 mi South 3.5 mph - N/A   Clear
7:15 PM 78.1 °F - 59.2 °F 52% 29.89 in 10.0 mi South 4.6 mph - N/A   Clear
7:36 PM 79.0 °F - 57.2 °F 47% 29.89 in 10.0 mi SSE 5.8 mph - N/A   Clear
7:55 PM 79.0 °F - 55.9 °F 45% 29.88 in 10.0 mi SSW 4.6 mph - N/A   Clear
8:15 PM 78.1 °F - 57.4 °F 49% 29.88 in 10.0 mi South 4.6 mph - N/A   Clear
8:35 PM 77.0 °F - 58.6 °F 53% 29.87 in 10.0 mi South 3.5 mph - N/A   Clear
8:55 PM 76.6 °F - 55.6 °F 48% 29.87 in 10.0 mi SSE 5.8 mph - N/A   Clear
9:15 PM 78.4 °F - 52.5 °F 40% 29.87 in 10.0 mi SSE 8.1 mph - N/A   Clear
9:35 PM 78.4 °F - 52.0 °F 40% 29.86 in 10.0 mi South 8.1 mph - N/A   Clear
9:56 PM 76.3 °F - 55.2 °F 48% 29.86 in 10.0 mi SSW 3.5 mph - N/A   Scattered Clouds
10:15 PM 75.2 °F - 56.5 °F 52% 29.86 in 10.0 mi South 3.5 mph - N/A   Scattered Clouds
10:35 PM 74.1 °F - 57.2 °F 55% 29.85 in 10.0 mi South 4.6 mph - N/A   Light Drizzle
10:56 PM 72.7 °F - 57.7 °F 59% 29.85 in 10.0 mi South 6.9 mph - N/A   Drizzle
11:15 PM 72.0 °F - 57.2 °F 60% 29.85 in 10.0 mi South 6.9 mph - N/A Rain Rain
11:35 PM 69.8 °F - 59.4 °F 69% 29.84 in 10.0 mi SSE 5.8 mph - N/A Rain Rain
11:55 PM 67.8 °F - 61.5 °F 80% 29.84 in 10.0 mi South 6.9 mph - N/A Rain Heavy Rain